Back to catalog

STARLINK-34825

AliveCommunicationsVLEO
NORAD 65692·PAYLOAD·🇺🇸 United States

Launched Sep 21, 2025 from Cape Canaveral Space Force Station

Loading…

Next Passes (next 24 hours)

TLE

FreshSource: CelesTrak SupGP

Epoch: Sep 14, 2026, 21:16 UTC

1 65692C 25212S   26257.88659722 -.00008453  00000+0 -24965-3 0  2576
2 65692  53.1575 184.0132 0001309  94.1074 163.7488 15.34405956    13

Track STARLINK-34825 in real time with AllMySat

Download on the App Store